Weather History for Somerset, KY

Change the Weather History Date:

Wednesday, November 13, 2013

  Actual Average Record
Temperature  
Mean Temperature 30 °F -  
Max Temperature 41 °F 56 °F 71 °F (2001)
Min Temperature 19 °F 35 °F 19 °F (2013)
Degree Days  
Heating Degree Days 35    
Moisture  
Dew Point 19 °F    
Average Humidity 68    
Maximum Humidity 93    
Minimum Humidity 36    
Precipitation  
Precipitation 0.00 in - - ()
Sea Level Pressure  
Sea Level Pressure 30.59 in    
Wind  
Wind Speed 1 mph (NE)    
Max Wind Speed 5 mph    
Max Gust Speed -    
Visibility 10 miles    
Events      
Averages and records for this station are not official NWS values.
T = Trace of Precipitation, MM = Missing Value Source: NWS Daily Summary

Daily Weather History Graph

Daily Weather History Graph

Search for Another Location

Airport:

Trip Planner

Search our weather history database for the weather conditions in past years. The results will help you decide how hot, cold, wet, or windy it might be!

Date:

Astronomy

Nov. 13, 2013 Rise Set
Actual Time 7:15 AM EST 5:29 PM EST
Civil Twilight 6:47 AM EST 5:57 PM EST
Nautical Twilight 6:16 AM EST 6:28 PM EST
Astronomical Twilight 5:45 AM EST 6:59 PM EST
Moon 3:12 PM EST (11/13) 3:12 AM EST (11/13)
Length of Visible Light 11h 09m
Length of Day
10h 14m
Waxing Gibbous, 84% of the Moon is Illuminated
Nov 13
Waxing Gibbous
Nov 17
Full
Nov 25
Last Quarter
Dec 2
New
Dec 9
First Quarter

Hourly Weather History & Observations

Time (EST) Temp. Windchill Dew Point Humidity Pressure Visibility Wind Dir Wind Speed Gust Speed Precip Events Conditions
12:15 AM 26.6 °F 21.2 °F 17.6 °F 69% 30.62 in 10.0 mi North 4.6 mph - N/A   Clear
12:35 AM 26.6 °F 22.6 °F 17.6 °F 69% 30.61 in 10.0 mi NNE 3.5 mph - N/A   Clear
12:55 AM 26.6 °F 22.6 °F 17.6 °F 69% 30.61 in 10.0 mi North 3.5 mph - N/A   Clear
1:15 AM 26.6 °F - 17.6 °F 69% 30.61 in 10.0 mi Calm Calm - N/A   Clear
1:35 AM 24.8 °F - 17.6 °F 74% 30.61 in 10.0 mi Calm Calm - N/A   Clear
1:55 AM 23.0 °F - 17.6 °F 80% 30.61 in 10.0 mi Calm Calm - N/A   Clear
2:15 AM 23.0 °F - 17.6 °F 80% 30.61 in 10.0 mi Calm Calm - N/A   Clear
2:35 AM 23.0 °F - 17.6 °F 80% 30.61 in 10.0 mi Calm Calm - N/A   Clear
2:55 AM 23.0 °F - 17.6 °F 80% 30.61 in 10.0 mi Calm Calm - N/A   Clear
3:15 AM 21.2 °F - 17.6 °F 86% 30.60 in 10.0 mi Calm Calm - N/A   Clear
3:35 AM 21.2 °F - 17.6 °F 86% 30.60 in 10.0 mi Calm Calm - N/A   Clear
3:55 AM 21.2 °F - 15.8 °F 80% 30.61 in 10.0 mi Calm Calm - N/A   Clear
4:15 AM 21.2 °F - 17.6 °F 86% 30.61 in 10.0 mi Calm Calm - N/A   Clear
4:35 AM 21.2 °F - 17.6 °F 86% 30.61 in 10.0 mi Calm Calm - N/A   Clear
4:55 AM 21.2 °F - 19.4 °F 93% 30.62 in 10.0 mi Calm Calm - N/A   Clear
5:15 AM 19.4 °F - 17.6 °F 93% 30.62 in 10.0 mi Calm Calm - N/A   Clear
5:35 AM 19.4 °F - 17.6 °F 93% 30.63 in 10.0 mi Calm Calm - N/A   Clear
5:55 AM 21.2 °F - 17.6 °F 86% 30.63 in 10.0 mi Calm Calm - N/A   Clear
6:15 AM 19.4 °F - 17.6 °F 93% 30.63 in 10.0 mi Calm Calm - N/A   Clear
6:35 AM 19.4 °F - 17.6 °F 93% 30.64 in 10.0 mi Calm Calm - N/A   Clear
6:55 AM 19.4 °F - 17.6 °F 93% 30.65 in 10.0 mi Calm Calm - N/A   Clear
7:15 AM 19.4 °F - 15.8 °F 86% 30.65 in 10.0 mi Calm Calm - N/A   Clear
7:35 AM 21.2 °F - 17.6 °F 86% 30.66 in 10.0 mi Calm Calm - N/A   Clear
7:55 AM 21.2 °F - 17.6 °F 86% 30.66 in 10.0 mi Calm Calm - N/A   Clear
8:15 AM 23.0 °F - 19.4 °F 86% 30.67 in 10.0 mi Calm Calm - N/A   Clear
8:35 AM 26.6 °F - 19.4 °F 74% 30.67 in 10.0 mi Calm Calm - N/A   Clear
8:55 AM 26.6 °F - 21.2 °F 80% 30.67 in 10.0 mi Calm Calm - N/A   Clear
9:15 AM 28.4 °F - 23.0 °F 80% 30.68 in 10.0 mi Calm Calm - N/A   Clear
9:35 AM 30.2 °F 26.7 °F 23.0 °F 75% 30.68 in 10.0 mi NE 3.5 mph - N/A   Clear
9:55 AM 32.0 °F - 23.0 °F 69% 30.68 in 10.0 mi Calm Calm - N/A   Clear
10:15 AM 32.0 °F 28.7 °F 23.0 °F 69% 30.68 in 10.0 mi South 3.5 mph - N/A   Clear
10:35 AM 32.0 °F - 23.0 °F 69% 30.68 in 10.0 mi Calm Calm - N/A   Clear
10:55 AM 32.0 °F - 23.0 °F 69% 30.67 in 10.0 mi Calm Calm - N/A   Clear
11:15 AM 33.8 °F 30.8 °F 21.2 °F 60% 30.67 in 10.0 mi SW 3.5 mph - N/A   Scattered Clouds
11:35 AM 33.8 °F - 19.4 °F 56% 30.66 in 10.0 mi Calm Calm - N/A   Clear
11:55 AM 35.6 °F 32.8 °F 19.4 °F 52% 30.65 in 10.0 mi East 3.5 mph - N/A   Clear
12:15 PM 35.6 °F 32.8 °F 19.4 °F 52% 30.65 in 10.0 mi SW 3.5 mph - N/A   Scattered Clouds
12:35 PM 35.6 °F - 19.4 °F 52% 30.63 in 10.0 mi Calm Calm - N/A   Scattered Clouds
12:55 PM 35.6 °F - 19.4 °F 52% 30.62 in 10.0 mi Calm Calm - N/A   Scattered Clouds
1:15 PM 35.6 °F - 19.4 °F 52% 30.61 in 10.0 mi Calm Calm - N/A   Scattered Clouds
1:35 PM 37.4 °F - 19.4 °F 48% 30.61 in 10.0 mi Calm Calm - N/A   Clear
1:55 PM 37.4 °F - 19.4 °F 48% 30.60 in 10.0 mi Calm Calm - N/A   Clear
2:15 PM 37.4 °F - 19.4 °F 48% 30.59 in 10.0 mi Calm Calm - N/A   Clear
2:35 PM 37.4 °F - 17.6 °F 45% 30.58 in 10.0 mi Calm Calm - N/A   Clear
2:55 PM 39.2 °F - 17.6 °F 42% 30.57 in 10.0 mi Calm Calm - N/A   Clear
3:15 PM 37.4 °F - 15.8 °F 41% 30.56 in 10.0 mi Calm Calm - N/A   Clear
3:35 PM 39.2 °F - 15.8 °F 39% 30.55 in 10.0 mi Calm Calm - N/A   Clear
3:55 PM 39.2 °F - 17.6 °F 42% 30.55 in 10.0 mi Calm Calm - N/A   Clear
4:15 PM 41.0 °F - 15.8 °F 36% 30.55 in 10.0 mi Calm Calm - N/A   Clear
4:35 PM 39.2 °F 37.0 °F 14.0 °F 36% 30.54 in 10.0 mi NW 3.5 mph - N/A   Clear
4:55 PM 37.4 °F - 14.0 °F 38% 30.53 in 10.0 mi Calm Calm - N/A   Clear
5:15 PM 37.4 °F - 14.0 °F 38% 30.53 in 10.0 mi Calm Calm - N/A   Clear
5:35 PM 37.4 °F - 14.0 °F 38% 30.53 in 10.0 mi Calm Calm - N/A   Clear
5:55 PM 35.6 °F - 15.8 °F 44% 30.52 in 10.0 mi Calm Calm - N/A   Clear
6:15 PM 35.6 °F - 17.6 °F 48% 30.52 in 10.0 mi Calm Calm - N/A   Clear
6:35 PM 33.8 °F - 17.6 °F 52% 30.52 in 10.0 mi Calm Calm - N/A   Clear
6:55 PM 32.0 °F - 19.4 °F 60% 30.51 in 10.0 mi Calm Calm - N/A   Clear
7:15 PM 32.0 °F - 19.4 °F 60% 30.51 in 10.0 mi Calm Calm - N/A   Clear
7:35 PM 32.0 °F - 21.2 °F 64% 30.51 in 10.0 mi Calm Calm - N/A   Clear
7:55 PM 30.2 °F - 21.2 °F 69% 30.50 in 10.0 mi Calm Calm - N/A   Clear
8:15 PM 30.2 °F - 21.2 °F 69% 30.50 in 10.0 mi Calm Calm - N/A   Clear
8:35 PM 30.2 °F - 21.2 °F 69% 30.51 in 10.0 mi Calm Calm - N/A   Clear
8:55 PM 30.2 °F - 21.2 °F 69% 30.51 in 10.0 mi Calm Calm - N/A   Clear
9:15 PM 28.4 °F - 21.2 °F 74% 30.50 in 10.0 mi Calm Calm - N/A   Clear
9:35 PM 28.4 °F - 21.2 °F 74% 30.50 in 10.0 mi Calm Calm - N/A   Clear
9:55 PM 28.4 °F 24.6 °F 21.2 °F 74% 30.49 in 10.0 mi SE 3.5 mph - N/A   Clear
10:15 PM 28.4 °F - 21.2 °F 74% 30.48 in 10.0 mi Calm Calm - N/A   Clear
10:35 PM 28.4 °F - 21.2 °F 74% 30.47 in 10.0 mi Calm Calm - N/A   Clear
10:55 PM 28.4 °F - 21.2 °F 74% 30.47 in 10.0 mi Calm Calm - N/A   Clear
11:15 PM 28.4 °F - 21.2 °F 74% 30.47 in 10.0 mi Calm Calm - N/A   Clear
11:35 PM 26.6 °F - 21.2 °F 80% 30.47 in 10.0 mi Calm Calm - N/A   Clear
11:55 PM 26.6 °F - 21.2 °F 80% 30.46 in 10.0 mi Calm Calm - N/A   Clear